Big Bear Station Historical Data
Daily Summary for April 2, 2017 Units:  English    Metric   Both
« Previous Day
Next Day »
Daily Weekly Monthly Yearly Custom
  High: Low: Average:
Temperature: 60.8 °F 30.4 °F 43.9 °F
Dew Point: 33.7 °F 21.7 °F 29.1 °F
Humidity: 91 % 33 % 60 %
Wind Speed: 5.8 mph 0.0 mph 1.9 mph
Wind Gust: -999.0 mph - -
Wind:- - SSW
Pressure: 30.16 in 30.08 in -
Precipitation: 0.00 in    
Historical Graphs
 
 
Tabular Data for April 2, 2017
Time Temperature Dew Point Pressure Wind Wind Speed Wind Gust Humidity Rainfall Rate (Hourly)
00:09 34.2 °F 28.1 °F 30.16 in Calm   -999.0 mph 78 % 0 in
00:24 33.8 °F 28.0 °F 30.16 in Calm   -999.0 mph 79 % 0 in
00:40 33.4 °F 27.9 °F 30.16 in South 1.7 mph -999.0 mph 80 % 0 in
00:55 33.6 °F 28.1 °F 30.16 in Calm   -999.0 mph 80 % 0 in
01:10 33.4 °F 27.9 °F 30.16 in Calm   -999.0 mph 80 % 0 in
01:25 33.1 °F 27.6 °F 30.16 in South 1.7 mph -999.0 mph 80 % 0 in
01:40 32.7 °F 27.5 °F 30.15 in South 1.7 mph -999.0 mph 81 % 0 in
01:56 32.5 °F 27.6 °F 30.15 in SSW 1.7 mph -999.0 mph 82 % 0 in
02:11 32.2 °F 27.6 °F 30.15 in Calm   -999.0 mph 83 % 0 in
02:26 32.0 °F 27.4 °F 30.15 in South 1.1 mph -999.0 mph 83 % 0 in
02:41 32.0 °F 27.7 °F 30.15 in South 1.7 mph -999.0 mph 84 % 0 in
02:57 32.0 °F 27.7 °F 30.15 in South 1.7 mph -999.0 mph 84 % 0 in
03:12 31.8 °F 27.8 °F 30.15 in Calm   -999.0 mph 85 % 0 in
03:27 31.6 °F 27.3 °F 30.14 in South 1.7 mph -999.0 mph 84 % 0 in
03:43 31.6 °F 27.6 °F 30.14 in South 1.7 mph -999.0 mph 85 % 0 in
03:58 31.5 °F 27.8 °F 30.14 in South 1.7 mph -999.0 mph 86 % 0 in
04:13 31.3 °F 27.9 °F 30.14 in Calm   -999.0 mph 87 % 0 in
04:28 31.1 °F 28.0 °F 30.13 in South 1.7 mph -999.0 mph 88 % 0 in
04:43 30.9 °F 28.0 °F 30.13 in Calm   -999.0 mph 89 % 0 in
04:59 30.6 °F 27.5 °F 30.13 in SE 1.1 mph -999.0 mph 88 % 0 in
05:14 30.7 °F 27.8 °F 30.13 in Calm   -999.0 mph 89 % 0 in
05:29 30.4 °F 27.5 °F 30.13 in South 1.1 mph -999.0 mph 89 % 0 in
05:44 30.4 °F 27.8 °F 30.13 in South 2.2 mph -999.0 mph 90 % 0 in
05:59 30.6 °F 28.0 °F 30.13 in SSE 1.7 mph -999.0 mph 90 % 0 in
06:15 30.9 °F 28.3 °F 30.14 in South 1.7 mph -999.0 mph 90 % 0 in
06:30 31.3 °F 28.7 °F 30.14 in South 1.7 mph -999.0 mph 90 % 0 in
06:45 31.5 °F 28.6 °F 30.14 in South 1.7 mph -999.0 mph 89 % 0 in
07:00 31.3 °F 28.7 °F 30.14 in South 1.7 mph -999.0 mph 90 % 0 in
07:16 32.4 °F 29.5 °F 30.15 in South 1.7 mph -999.0 mph 89 % 0 in
07:31 33.1 °F 29.9 °F 30.15 in South 1.7 mph -999.0 mph 88 % 0 in
07:46 32.5 °F 30.2 °F 30.15 in Calm   -999.0 mph 91 % 0 in
08:01 35.4 °F 31.9 °F 30.15 in South 1.7 mph -999.0 mph 87 % 0 in
08:16 35.6 °F 32.1 °F 30.15 in ESE 1.7 mph -999.0 mph 87 % 0 in
08:32 39.7 °F 33.1 °F 30.15 in Calm   -999.0 mph 77 % 0 in
08:47 47.1 °F 31.8 °F 30.15 in NW 1.7 mph -999.0 mph 55 % 0 in
09:03 47.8 °F 31.0 °F 30.15 in NW 2.2 mph -999.0 mph 52 % 0 in
09:18 48.4 °F 31.1 °F 30.15 in NNE 3.2 mph -999.0 mph 51 % 0 in
09:33 48.7 °F 31.9 °F 30.15 in West 4.2 mph -999.0 mph 52 % 0 in
09:48 49.6 °F 31.2 °F 30.15 in Calm   -999.0 mph 49 % 0 in
10:03 50.5 °F 31.0 °F 30.15 in NW 1.1 mph -999.0 mph 47 % 0 in
10:19 51.3 °F 31.2 °F 30.15 in NW 3.7 mph -999.0 mph 46 % 0 in
10:34 52.5 °F 30.6 °F 30.14 in Calm   -999.0 mph 43 % 0 in
10:49 53.8 °F 31.2 °F 30.15 in Calm   -999.0 mph 42 % 0 in
11:04 55.4 °F 32.7 °F 30.15 in NNW 2.7 mph -999.0 mph 42 % 0 in
11:19 56.3 °F 31.6 °F 30.14 in NNE 5.3 mph -999.0 mph 39 % 0 in
11:35 57.6 °F 33.4 °F 30.14 in SSW 1.7 mph -999.0 mph 40 % 0 in
11:50 57.4 °F 32.6 °F 30.14 in SSW 2.7 mph -999.0 mph 39 % 0 in
12:05 57.6 °F 33.4 °F 30.14 in North 3.7 mph -999.0 mph 40 % 0 in
12:21 58.8 °F 30.5 °F 30.14 in SE 3.2 mph -999.0 mph 34 % 0 in
12:36 59.2 °F 32.2 °F 30.13 in NW 3.2 mph -999.0 mph 36 % 0 in
12:51 59.5 °F 33.2 °F 30.13 in WNW 4.2 mph -999.0 mph 37 % 0 in
13:06 60.1 °F 33.0 °F 30.13 in North 1.7 mph -999.0 mph 36 % 0 in
13:37 60.1 °F 33.7 °F 30.13 in WNW 5.3 mph -999.0 mph 37 % 0 in
13:52 60.4 °F 32.6 °F 30.13 in East 2.7 mph -999.0 mph 35 % 0 in
14:07 59.9 °F 33.6 °F 30.12 in NNW 2.7 mph -999.0 mph 37 % 0 in
14:23 60.1 °F 33.7 °F 30.12 in SSE 3.2 mph -999.0 mph 37 % 0 in
14:38 60.8 °F 33.0 °F 30.12 in SSW 4.7 mph -999.0 mph 35 % 0 in
14:53 60.8 °F 32.2 °F 30.11 in NW 4.2 mph -999.0 mph 34 % 0 in
15:09 60.1 °F 31.6 °F 30.10 in SE 2.2 mph -999.0 mph 34 % 0 in
15:24 59.4 °F 30.3 °F 30.11 in SW 2.2 mph -999.0 mph 33 % 0 in
15:55 58.1 °F 32.0 °F 30.09 in South 2.2 mph -999.0 mph 37 % 0 in
16:10 55.2 °F 31.9 °F 30.09 in ESE 1.7 mph -999.0 mph 41 % 0 in
16:25 56.1 °F 32.7 °F 30.09 in South 3.7 mph -999.0 mph 41 % 0 in
16:41 54.7 °F 31.5 °F 30.09 in South 3.7 mph -999.0 mph 41 % 0 in
16:56 54.9 °F 31.6 °F 30.09 in SE 5.8 mph -999.0 mph 41 % 0 in
17:11 56.7 °F 31.4 °F 30.09 in NNE 1.7 mph -999.0 mph 38 % 0 in
17:27 55.9 °F 30.6 °F 30.09 in South 4.7 mph -999.0 mph 38 % 0 in
17:42 56.8 °F 30.8 °F 30.09 in ESE 1.1 mph -999.0 mph 37 % 0 in
17:57 53.1 °F 30.0 °F 30.09 in SW 2.7 mph -999.0 mph 41 % 0 in
18:13 49.8 °F 28.8 °F 30.09 in ESE 3.2 mph -999.0 mph 44 % 0 in
18:28 49.3 °F 27.7 °F 30.08 in South 3.2 mph -999.0 mph 43 % 0 in
18:44 48.7 °F 26.0 °F 30.08 in Calm   -999.0 mph 41 % 0 in
18:59 46.9 °F 26.7 °F 30.08 in WSW 2.7 mph -999.0 mph 45 % 0 in
19:14 45.7 °F 30.0 °F 30.08 in NNW 1.7 mph -999.0 mph 54 % 0 in
19:29 44.2 °F 29.5 °F 30.08 in South 4.2 mph -999.0 mph 56 % 0 in
19:44 43.3 °F 30.3 °F 30.08 in Calm   -999.0 mph 60 % 0 in
20:00 42.8 °F 30.3 °F 30.09 in South 3.7 mph -999.0 mph 61 % 0 in
20:15 42.1 °F 29.6 °F 30.09 in Calm   -999.0 mph 61 % 0 in
20:30 41.5 °F 29.8 °F 30.09 in Calm   -999.0 mph 63 % 0 in
20:46 40.6 °F 28.6 °F 30.09 in Calm   -999.0 mph 62 % 0 in
21:01 40.1 °F 28.1 °F 30.09 in South 1.7 mph -999.0 mph 62 % 0 in
21:16 40.3 °F 25.0 °F 30.09 in South 2.2 mph -999.0 mph 54 % 0 in
21:31 40.5 °F 23.3 °F 30.09 in South 3.2 mph -999.0 mph 50 % 0 in
21:46 39.9 °F 23.7 °F 30.09 in ESE 2.2 mph -999.0 mph 52 % 0 in
22:02 40.6 °F 22.9 °F 30.09 in ESE 1.1 mph -999.0 mph 49 % 0 in
22:17 41.7 °F 22.4 °F 30.09 in South 2.7 mph -999.0 mph 46 % 0 in
22:32 41.4 °F 22.7 °F 30.09 in North 2.2 mph -999.0 mph 47 % 0 in
22:47 41.2 °F 22.0 °F 30.09 in South 1.1 mph -999.0 mph 46 % 0 in
23:03 41.0 °F 22.8 °F 30.08 in NW 1.1 mph -999.0 mph 48 % 0 in
23:18 41.0 °F 22.3 °F 30.08 in NNW 3.7 mph -999.0 mph 47 % 0 in
23:33 41.4 °F 22.2 °F 30.08 in West 1.1 mph -999.0 mph 46 % 0 in
23:48 41.5 °F 21.7 °F 30.08 in North 1.1 mph -999.0 mph 45 % 0 in
Big Bear CA Weather
Compliments of Weather Underground - 1.5 mb